スコッティ彗星

P/2015 Q1 ( Scotti )

English version
Home page
Updated on May 7, 2016

---------------------------------------------------------------------

・ プロフィール

発見日 2015年8月18日
発見光度 18.9等
発見者 J. V. Scotti (Spacewatch, Kitt Peak)

・ 写真集

・ 軌道要素

Epoch 2015 Sept. 15.0 TT = JDT 2457280.5
T 2015 Sept.  9.15569 TT                                MPCW
q   1.7516907            (2000.0)            P               Q
n   0.15517693     Peri.  198.96482     +0.74984008     -0.64383146
a   3.4296617      Node   203.31038     +0.64584653     +0.76227627
e   0.4892526      Incl.   22.64922     +0.14360400     -0.06645252
P   6.35
From 326 observations 2015 Aug. 18-2016 Mar. 2, mean residual 0".5.

・ 光度変化

        m1 = 10.0 + 5 logΔ + 25.0 log r(t - 70)

---------------------------------------------------------------------

軌道要素はM.P.E.C. 2016-F43に掲載されたものです。
光度グラフはComet for Windowsで作成したものです。

---------------------------------------------------------------------

Copyright(C) Seiichi Yoshida (comet@aerith.net). All rights reserved.